Regional Weather Roundup
Issued by NWS

Home | Current Version | Previous Version | Graphics & Text | Print | Product List | Glossary On
Versions: 1 2 3 4 5 6 7 8 9 10 11 12 13 14 15 16 17 18 19 20 21 22 23 24 25 26 27 28 29 30 31 32 33 34 35 36 37 38 39 40 41 42 43 44 45 46 47 48 49 50
000
ASUS43 KMPX 170310
RWRMN
WEATHER ROUNDUP FOR MINNESOTA
NATIONAL WEATHER SERVICE TWIN CITIES/CHANHASSEN MN
1000 PM CDT WED AUG 16 2017


NOTE: "FAIR" INDICATES FEW OR NO CLOUDS BELOW 12,000 FEET WITH NO
SIGNIFICANT WEATHER AND/OR OBSTRUCTIONS TO VISIBILITY. N/A MEANS
CURRENT SKY AND/OR WEATHER CONDITIONS ARE NOT AVAILABLE.

MNZ060>063-068>070-170400-
   Twin Cities Metro

CITY           SKY/WX    TMP DP  RH WIND       PRES   REMARKS
TWIN CITIES    CLOUDY    70  67  90 E8        29.63S
ST PAUL        RAIN      71  68  90 SE10G21   29.63F FOG
CRYSTAL        RAIN      69  66  90 VRB6      29.63F FOG
BLAINE         LGT RAIN  72  72 100 E17G32    29.63F
LAKEVILLE      CLOUDY    70  70 100 SE5       29.63F
EDEN PRAIRIE   CLOUDY    72  69  90 E8        29.61F
SOUTH ST PAUL  LGT RAIN  69  69  99 E7        29.63F
LAKE ELMO      LGT RAIN  68  68 100 NE14G22   29.67F
$$
MNZ001>005-007-008-013>017-022>024-027-028-170400-
   Northwest Minnesota

CITY           SKY/WX    TMP DP  RH WIND       PRES   REMARKS
BEMIDJI        LGT RAIN  64  63  97 E7        29.81S
HALLOCK        CLOUDY    61  59  94 NE6       29.84F
ROSEAU         CLOUDY    63  57  82 E6        29.84F HAZE
WARROAD        CLOUDY    63  59  88 E8        29.85F
THIEF RVR FALL CLOUDY    63  63 100 NE6       29.83S
CROOKSTON      CLOUDY    64  63  94 E6        29.81F
FOSSTON        CLOUDY    63  63 100 N5        29.81F FOG
DETROIT LAKES  DRIZZLE   64  63  94 NE5       29.80S
MOORHEAD       CLOUDY    64  63  94 N7        29.79S
PARK RAPIDS    CLOUDY    66  63  90 E7        29.80R
MAHNOMEN       CLOUDY    64  64  98 N5        29.80S
$$
MNZ006-009>011-018-025>026-170400-
   North Central Minnesota

CITY           SKY/WX    TMP DP  RH WIND       PRES   REMARKS
BAUDETTE       CLOUDY    61  61 100 E8        29.84S FOG
FLAG ISLAND    CLOUDY    63  57  82 E5        29.85F
INTL FALLS     LGT RAIN  61  59  93 E7        29.86F
WASKISH        DRIZZLE   63  61  94 E6        29.83S
BIG FORK       DRIZZLE   63  61  94 E6        29.84S
LONGVILLE      LGT RAIN  63  63 100 CALM      29.81R
GRAND RAPIDS   LGT RAIN  62  60  93 VRB5      29.84F
CRANE LAKE     DRIZZLE   59  57  94 CALM      29.88F
ORR            DRIZZLE   59  55  88 E3        29.84F
COOK           DRIZZLE   59  57  94 CALM      29.87S
WALKER         DRIZZLE   64  63  97 E6        29.81R
$$
MNZ012-019>021-037-170400-
   Northeast Minnesota

CITY           SKY/WX    TMP DP  RH WIND       PRES   REMARKS
DULUTH         CLOUDY    60  58  92 E13       29.83F
ELY            RAIN      57  57 100 E6        29.87F
HIBBING        CLOUDY    59  58  96 NE6       29.85S
EVELETH        CLOUDY    59  56  89 E6        29.86S
DULUTH HARBOR  CLOUDY    64  61  88 NE22      29.82F
TWO HARBORS    CLOUDY    63  57  82 E9        29.83F
GRAND MARAIS     N/A     63  57  81 NE10G18   29.90S
G MARAIS ARPRT CLOUDY    57  50  77 E10       29.93F
$$
MNZ029>031-032-039>041-046>048-054>057-064-170400-
   West Central Minnesota

CITY           SKY/WX    TMP DP  RH WIND       PRES   REMARKS
FERGUS FALLS   LGT RAIN  66  66 100 N5        29.77R
WHEATON        RAIN      66  64  94 N8        29.77S
MORRIS         RAIN      66  66 100 N10       29.73R
ALEXANDRIA     LGT RAIN  66  66 100 NE13      29.76S
ELBOW LAKE     RAIN      65  65 100 NE7       29.76S
WADENA         LGT RAIN  64  64 100 NE6       29.78S
GLENWOOD       HVY RAIN  66  64  94 NE10      29.73S
APPLETON       LGT RAIN  68  64  88 N13       29.71S
BENSON         RAIN      66  64  94 NE13G20   29.71S
ORTONVILLE     RAIN      66  64  94 MISG      29.74R
MADISON        HVY RAIN  70  70 100 N13       29.72R
WILLMAR        RAIN      68  66  94 N12       29.63F
$$
MNZ033>034-036-042>043-049>051-058-059-170400-
   Central Minnesota

CITY           SKY/WX    TMP DP  RH WIND       PRES   REMARKS
ST CLOUD       RAIN      68  68 100 NE9G20    29.68S FOG
SAUK CENTRE    HVY RAIN  65  64  97 N12G17    29.72S
PAYNESVILLE    LGT RAIN  67  67  99 NE13G21   29.66F
AITKIN         RAIN      63  61  94 NE7       29.78F
PINE RIVER     RAIN      61  61 100 E5        29.83F
BRAINERD       HVY RAIN  63  62  97 NE7       29.78S FOG
STAPLES        LGT RAIN  64  63  94 NE5       29.77F
LONG PRAIRIE   HVY RAIN  63  63 100 N13       29.75R
LITTLE FALLS   RAIN      63  61  94 N5        29.74F
LITCHFIELD     RAIN      70  70 100 E18       29.61F
BUFFALO        RAIN      68  65  88 NE15G26   29.63F
MAPLE LAKE     RAIN      70  68  94 E16G24    29.65F
HUTCHINSON     CLOUDY    70  69  96 E9        29.60F
$$
MNZ037-044-045-052-053-170400-
   East Central Minnesota

CITY           SKY/WX    TMP DP  RH WIND       PRES   REMARKS
PRINCETON      RAIN      70  68  94 NE8       29.69F
MORA           LGT RAIN  64  63  94 NE6       29.74F
RUSH CITY      RAIN      68  66  93 NE8       29.70F
MOOSE LAKE     LGT RAIN  61  59  94 NE5       29.79S
HINCKLEY       RAIN      64  64 100 NE8       29.75S
CLOQUET        DRIZZLE   61  57  88 E12G18    29.81F
MCGREGOR       CLOUDY    63  61  94 NE6       29.80F
$$
MNZ071>073-080-081-089-090-097-098-170400-
   Southwest Minnesota

CITY           SKY/WX    TMP DP  RH WIND       PRES   REMARKS
MONTEVIDEO     RAIN      66  66 100 N13G18    29.69R
GRANITE FALLS  HVY RAIN  66  66  99 N22G29    29.65F
CANBY          RAIN      67  65  94 N10G16    29.71R
MARSHALL       LGT RAIN  66  65  96 N18G26    29.66R
REDWOOD FALLS  HVY RAIN  67  64  90 VRB5G18   29.55F FOG
OLIVIA         RAIN      68  64  88 N15G25    29.54F
PIPESTONE      RAIN      66  63  88 NW9       29.73R
WINDOM         CLOUDY    66  64  94 W16G24    29.61R FOG
WORTHINGTON    LGT RAIN  66  64  93 W14       29.70R
JACKSON        CLOUDY    66  63  88 W18       29.65R
TRACY          RAIN      65  65 100 NW16G24   29.65R
SLAYTON        CLOUDY    65  60  85 NW15G23   29.68R
$$
MNZ065>067-074>077-082>085-091>093-170400-
   South Central Minnesota

CITY           SKY/WX    TMP DP  RH WIND       PRES   REMARKS
MANKATO        PTCLDY    71  69  93 S9        29.60F
NEW ULM        PTCLDY    70  68  94 SE8       29.56F
ST JAMES       CLOUDY    70  66  88 S12G17    29.59F
FAIRMONT       CLOUDY    68  65  90 SW15      29.63F
GLENCOE        LGT RAIN  71  71 100 E9        29.59F
FARIBAULT      PTCLDY    72  70  94 SE9G16    29.62F
OWATONNA       LGT RAIN  73  72  94 SE16      29.64F
WASECA         MOCLDY    72  70  94 S9        29.64F
ALBERT LEA     MOCLDY    73  73 100 SW14G20   29.65F
$$
MNZ078>079-086>088-094>096-170400-
   Southeast Minnesota

CITY           SKY/WX    TMP DP  RH WIND       PRES   REMARKS
ROCHESTER      CLOUDY    72  71  97 S9        29.68F
RED WING       LGT RAIN  72  70  94 MISG      29.65F
STANTON        CLOUDY    72  69  90 SE8       29.63F
DODGE CENTER   PTCLDY    70  68  94 SE7       29.66F
WINONA         CLOUDY    72  70  94 SE13      29.68F
AUSTIN         PTCLDY    72  70  94 S12       29.66F
PRESTON        CLOUDY    71  69  92 S9        29.70F
$$
ABBREVIATIONS USED IN REMARKS
   TC - TEMPERATURES IN CELSIUS
  WCI - WIND CHILL INDEX
   HX - HEAT INDEX
  VSB - VISIBILITY
$$




USA.gov is the U.S. government's official web portal to all federal, state and local government web resources and services.